STARLINK-30247, 57644

Orbit data source: Space-Track

STARLINK-30247, 57644 is a payload satellite owned by SpaceX/Seattle (US) in LEO that was launched on Thu, 17 Aug 2023 UTC via an FALCON 9 launch vehicle from the Air Force Eastern Test Range (AFETR). Payload-class satellites include a variety of spacecraft equipped with specific instruments for various scientific and technological missions. These include communications satellites like Starlink; space stations such as the ISS; scientific satellites like the Hubble; Earth observation satellites from companies like Planet Labs, Umbra, and HawkEye 360; GPS; miniature CubeSats for education and research; and military/defense satellites.

Loading next visibility...
Identifier
57644, 2023-122N
Orbit
LEO
Country
Flag of USUS
Related business
Manufacturer
SpaceX/Seattle
Mission
Operational Commercial Communications
Bus & Motor
STARLINK V2M, Unknown motor
Mass
730 kg wet, ~700 kg dry
Launch date (UTC)
2023-08-17 (2 years ago)
Launch vehicle
FALCON 9
Launch site
Air Force Eastern Test Range (AFETR)
Object type
Payload
Rocket body
Debris
Shape & HBR
Box + 2 Pan, 14.5 m
Radar Cross Section
33.884 m², Large (>1 m²)

Expand to show TLE details & history
Last TLE update: 7 hours ago

TLE from 7 hours ago
0 STARLINK-30247
1 57644U 23122N   25243.49947545  .00001461  00000-0  12318-3 0  9999
2 57644  43.0025  47.9620 0002167 259.5352 100.5246 15.02545588113575
Epoch: 2025-08-31T11:59Z
TLE epoch observation values (Epoch: 2025-08-31T11:59:14.678Z)
Latitude
-0.00005°
Longitude
-111.76775°
Altitude
559.103 km
Speed
7.584 km/s
True Right ascension
03h 11m 50s
True Declination
0° 00' 00"
Sunlit
Object was in daylight at epoch
Visualization orbit readout
Latitude
Unknown
Longitude
Unknown
Altitude
Unknown
Speed
Unknown
Apparent Right ascension
Unknown
Apparent Declination
Unknown
Sunlit
N/A
Visualization observer readout
Local Sidereal Time
10:22:40
Azimuth
Unknown
Elevation
Unknown
Doppler factor
Unknown
Orbital elements
Apogee altitude
562.477 km
Perigee altitude
559.47 km
Semi-major axis
6,939.111 km
Eccentricity
0.00022
Inclination
43.0025°
RAAN
47.962°
Arg. of periapsis
259.5352°
True anomaly
100.54901°
Mean anomaly
100.5246°
Eccentric anomaly
100.53681°
Mean motion
3.75481 °/min
Orbital period
95.88 mins
BSTAR
0.00012318
Loading maneuver chart data...
Computing Atmospheric mass density...
Loading historical data...
Loading historical data...
Loading historical data...
Loading historical data...
Loading historical data...
Loading historical data...
Loading historical data...

Documentation

Showing up to 5 results
|